Date String (YYYY-MM-DD hh:mm:ss) UTC,Instrument flags,Ambient pressure (hPa),Sample flow (lpm),Bypass flow (lpm),Sample temperature (°C),Ambient temperature (°C),ASC tube jacket temperature (°C),LED temperature (°C),Box temperature (°C),Sample RH (%),Span deviation,Mass concentration (μg/m³),Mass concentration (μg/m³),Mass concentration (μg/m³)
DateTimeUTC,F1_M11,P_M11,Q1_M11,Q2_M11,T1_M11,T2_M11,T3_M11,T4_M11,T5_M11,U1_M11,ZSPAN_M11,X0_M11,X2_M11,X1_M11
2023-01-26 17:00:00,,0827.5,5.05,0.00,21.6,19.9,00.0,30.4,23.2,05.8,0000.0,0001.31,0000.89,0000.76
2023-01-26 17:01:00,,0827.5,5.00,0.00,21.6,19.9,00.0,30.4,23.2,05.4,0000.0,0001.32,0000.90,0000.76
2023-01-26 17:02:00,,0827.5,5.00,0.00,21.6,19.9,00.0,30.4,23.2,04.9,0000.0,0001.31,0000.89,0000.75
2023-01-26 17:03:00,,0827.5,4.99,0.00,21.6,19.9,00.0,30.4,23.2,05.2,0000.0,0001.27,0000.87,0000.74
2023-01-26 17:04:00,,0827.4,4.99,0.00,21.6,20.0,00.0,30.4,23.2,04.8,0000.0,0001.24,0000.85,0000.71
2023-01-26 17:05:00,,0827.4,5.00,0.00,21.6,20.1,00.0,30.4,23.2,04.7,0000.0,0001.21,0000.83,0000.69
2023-01-26 17:06:00,,0827.4,5.03,0.00,21.6,20.3,00.0,30.4,23.3,04.8,0000.0,0001.17,0000.81,0000.69
2023-01-26 17:07:00,,0827.5,5.00,0.00,21.6,20.4,00.0,30.4,23.3,05.1,0000.0,0001.05,0000.77,0000.68
2023-01-26 17:08:00,,0827.4,5.00,0.00,21.6,20.2,00.0,30.4,23.3,05.1,0000.0,0001.00,0000.75,0000.66
2023-01-26 17:09:00,,0827.4,5.01,0.00,21.6,20.1,00.0,30.4,23.2,05.2,0000.0,0001.00,0000.74,0000.66
2023-01-26 17:10:00,,0827.4,5.01,0.00,21.6,20.0,00.0,30.4,23.2,05.5,0000.0,0001.10,0000.75,0000.65
2023-01-26 17:11:00,,0827.4,4.99,0.00,21.6,20.0,00.0,30.4,23.2,05.7,0000.0,0001.12,0000.74,0000.64
2023-01-26 17:12:00,,0827.4,5.00,0.00,21.5,19.9,00.0,30.4,23.2,05.3,0000.0,0001.06,0000.71,0000.63
2023-01-26 17:13:00,,0827.4,5.00,0.00,21.5,19.9,00.0,30.4,23.2,05.3,0000.0,0001.03,0000.69,0000.62
2023-01-26 17:14:00,,0827.4,4.99,0.00,21.5,20.0,00.0,30.3,23.2,05.9,0000.0,0001.04,0000.69,0000.62
2023-01-26 17:15:00,,0827.4,4.99,0.00,21.5,20.1,00.0,30.3,23.2,05.7,0000.0,0001.02,0000.68,0000.62
2023-01-26 17:16:00,,0827.3,5.00,0.00,21.5,20.1,00.0,30.3,23.1,05.5,0000.0,0001.09,0000.70,0000.61
2023-01-26 17:17:00,,0827.4,5.01,0.00,21.5,20.0,00.0,30.3,23.2,05.7,0000.0,0001.76,0000.71,0000.61
2023-01-26 17:18:00,,0827.3,4.98,0.00,21.5,20.1,00.0,30.3,23.2,05.7,0000.0,0002.34,0000.71,0000.61
2023-01-26 17:19:00,,0827.3,5.02,0.00,21.5,20.3,00.0,30.3,23.3,05.9,0000.0,0002.40,0000.73,0000.62
2023-01-26 17:20:00,,0827.2,5.00,0.00,21.6,20.5,00.0,30.3,23.3,05.8,0000.0,0002.49,0000.76,0000.63
2023-01-26 17:21:00,,0827.2,5.00,0.00,21.6,20.7,00.0,30.4,23.4,05.9,0000.0,0002.52,0000.78,0000.64
2023-01-26 17:22:00,,0827.2,4.99,0.00,21.6,20.6,00.0,30.4,23.4,06.0,0000.0,0002.43,0000.78,0000.64
2023-01-26 17:23:00,,0827.1,5.01,0.00,21.7,20.6,00.0,30.4,23.4,05.8,0000.0,0002.46,0000.79,0000.64
2023-01-26 17:24:00,,0827.3,5.02,0.00,21.7,20.6,00.0,30.4,23.4,05.7,0000.0,0002.45,0000.79,0000.65
2023-01-26 17:25:00,,0827.1,4.99,0.00,21.7,20.6,00.0,30.4,23.4,05.3,0000.0,0002.43,0000.78,0000.65
2023-01-26 17:26:00,,0827.0,5.00,0.00,21.7,20.5,00.0,30.4,23.4,05.1,0000.0,0002.44,0000.79,0000.65
2023-01-26 17:27:00,,0827.0,5.01,0.00,21.7,20.4,00.0,30.4,23.4,05.3,0000.0,0002.46,0000.80,0000.65
2023-01-26 17:28:00,,0827.2,5.00,0.00,21.6,20.3,00.0,30.4,23.3,05.5,0000.0,0001.98,0000.80,0000.66
2023-01-26 17:29:00,,0826.9,4.99,0.00,21.6,20.3,00.0,30.4,23.3,05.4,0000.0,0001.27,0000.81,0000.65
2023-01-26 17:30:00,,0826.9,5.01,0.00,21.6,20.3,00.0,30.4,23.4,05.5,0000.0,0001.25,0000.81,0000.64
2023-01-26 17:31:00,,0826.9,5.01,0.00,21.6,20.2,00.0,30.4,23.3,05.4,0000.0,0001.18,0000.81,0000.63
2023-01-26 17:32:00,,0827.2,4.99,0.00,21.6,20.2,00.0,30.4,23.3,05.6,0000.0,0001.22,0000.82,0000.62
2023-01-26 17:33:00,,0826.8,4.99,0.00,21.6,20.1,00.0,30.4,23.3,05.6,0000.0,0001.24,0000.81,0000.62
2023-01-26 17:34:00,,0826.8,5.01,0.00,21.6,20.1,00.0,30.4,23.3,05.6,0000.0,0001.25,0000.81,0000.62
2023-01-26 17:35:00,,0826.7,5.01,0.00,21.6,20.1,00.0,30.4,23.3,05.8,0000.0,0001.24,0000.81,0000.62
2023-01-26 17:36:00,,0826.7,5.00,0.00,21.6,20.1,00.0,30.4,23.3,05.8,0000.0,0001.24,0000.81,0000.62
2023-01-26 17:37:00,,0826.7,5.00,0.00,21.6,20.1,00.0,30.4,23.3,05.9,0000.0,0001.29,0000.82,0000.62
2023-01-26 17:38:00,,0826.7,5.01,0.00,21.6,20.1,00.0,30.4,23.3,05.5,0000.0,0001.31,0000.81,0000.61
2023-01-26 17:39:00,,0826.7,4.96,0.00,21.6,20.1,00.0,30.4,23.2,05.5,0000.0,0001.37,0000.81,0000.60
2023-01-26 17:40:00,,0826.7,4.97,0.00,21.6,20.1,00.0,30.4,23.3,05.7,0000.0,0001.34,0000.79,0000.60
2023-01-26 17:41:00,,0826.7,4.96,0.00,21.6,20.2,00.0,30.4,23.3,06.0,0000.0,0001.29,0000.77,0000.60
2023-01-26 17:42:00,,0826.7,4.99,0.00,21.6,20.2,00.0,30.4,23.3,05.6,0000.0,0001.27,0000.76,0000.60
2023-01-26 17:43:00,,0826.7,4.95,0.00,21.6,20.2,00.0,30.4,23.3,05.8,0000.0,0001.21,0000.72,0000.60
2023-01-26 17:44:00,,0826.6,5.01,0.00,21.6,20.2,00.0,30.4,23.3,06.1,0000.0,0001.22,0000.71,0000.59
2023-01-26 17:45:00,,0826.5,5.00,0.00,21.6,20.3,00.0,30.4,23.3,06.4,0000.0,0001.16,0000.69,0000.59
2023-01-26 17:46:00,,0826.5,5.00,0.00,21.6,20.3,00.0,30.4,23.3,05.4,0000.0,0001.14,0000.68,0000.59
2023-01-26 17:47:00,,0826.5,5.02,0.00,21.6,20.1,00.0,30.4,23.2,05.4,0000.0,0001.13,0000.68,0000.58
2023-01-26 17:48:00,,0826.5,4.98,0.00,21.5,20.0,00.0,30.4,23.2,05.6,0000.0,0001.99,0000.79,0000.59
2023-01-26 17:49:00,,0826.5,5.01,0.00,21.5,19.9,00.0,30.3,23.1,05.5,0000.0,0002.79,0000.92,0000.60
2023-01-26 17:50:00,,0826.5,5.00,0.00,21.5,19.9,00.0,30.3,23.1,05.6,0000.0,0002.75,0000.94,0000.60
2023-01-26 17:51:00,,0826.6,4.96,0.00,21.4,19.8,00.0,30.3,23.1,05.8,0000.0,0002.72,0000.93,0000.59
2023-01-26 17:52:00,,0826.5,4.99,0.00,21.4,19.8,00.0,30.3,23.1,05.6,0000.0,0002.84,0000.93,0000.59
2023-01-26 17:53:00,,0826.6,5.00,0.00,21.4,20.0,00.0,30.3,23.1,05.6,0000.0,0002.91,0000.94,0000.59
2023-01-26 17:54:00,,0826.6,5.00,0.00,21.5,21.3,00.0,30.3,23.4,05.3,0000.0,0002.90,0000.94,0000.59
2023-01-26 17:55:00,,0826.5,5.01,0.00,21.7,22.8,00.0,30.4,23.7,05.3,0000.0,0002.83,0000.94,0000.58
2023-01-26 17:56:00,,0826.5,5.00,0.00,21.8,22.9,00.0,30.4,23.9,05.3,0000.0,0002.82,0000.94,0000.58
2023-01-26 17:57:00,,0826.5,5.01,0.00,21.9,22.4,00.0,30.5,23.9,05.4,0000.0,0002.90,0000.97,0000.58
2023-01-26 17:58:00,,0826.6,5.00,0.00,21.9,21.9,00.0,30.5,23.8,05.3,0000.0,0003.14,0001.05,0000.60
2023-01-26 17:59:00,,0826.5,5.00,0.00,21.9,21.6,00.0,30.5,23.8,05.4,0000.0,0002.67,0001.03,0000.60
